| time (UTC) | temp F | wind direction | speed MPH | gust MPH | rain 1hr in | rain 24hr in | rain mn in | humidity % | barometer mb |
| 20260506001539 | 46 | 202 | 0.0 | 5.0 | 0.00 | 0.15 | 0.15 | 60 | 1012.7 |
| 20260506000039 | 45 | 199 | 0.0 | 3.0 | 0.00 | 0.15 | 0.15 | 65 | 1012.7 |
| 20260505234534 | 45 | 202 | 1.0 | 7.0 | 0.00 | 0.15 | 0.15 | 66 | 1012.5 |
| 20260505233036 | 45 | 221 | 2.0 | 7.0 | 0.00 | 0.15 | 0.15 | 64 | 1012.6 |
| 20260505231535 | 44 | 78 | 2.0 | 7.0 | 0.00 | 0.15 | 0.15 | 66 | 1012.7 |
| 20260505230036 | 44 | 138 | 0.0 | 6.0 | 0.00 | 0.15 | 0.15 | 67 | 1012.5 |
| 20260505224529 | 44 | 65 | 1.0 | 6.0 | 0.00 | 0.15 | 0.15 | 66 | 1012.6 |
| 20260505223033 | 43 | 342 | 4.0 | 11.0 | 0.00 | 0.16 | 0.15 | 67 | 1012.4 |
| 20260505221527 | 43 | 284 | 2.0 | 12.0 | 0.00 | 0.16 | 0.15 | 73 | 1012.2 |
| 20260505220025 | 42 | 245 | 4.0 | 11.0 | 0.00 | 0.16 | 0.15 | 74 | 1012.2 |
| 20260505214531 | 42 | 290 | 2.0 | 6.0 | 0.01 | 0.16 | 0.15 | 74 | 1012.2 |
| 20260505213026 | 42 | 71 | 0.0 | 3.0 | 0.02 | 0.21 | 0.15 | 76 | 1012.3 |
| 20260505211526 | 42 | 83 | 0.0 | 5.0 | 0.02 | 0.21 | 0.15 | 76 | 1012.3 |
| 20260505210025 | 43 | 123 | 1.0 | 8.0 | 0.04 | 0.21 | 0.15 | 71 | 1012.2 |
| 20260505204524 | 43 | 137 | 1.0 | 7.0 | 0.05 | 0.21 | 0.15 | 76 | 1012.2 |
| 20260505203020 | 40 | 128 | 4.0 | 9.0 | 0.07 | 0.25 | 0.14 | 81 | 1012.3 |
| 20260505201518 | 40 | 125 | 1.0 | 5.0 | 0.08 | 0.24 | 0.13 | 83 | 1012.5 |
| 20260505200016 | 39 | 89 | 1.0 | 9.0 | 0.08 | 0.23 | 0.12 | 86 | 1012.6 |
| 20260505194516 | 39 | 120 | 1.0 | 5.0 | 0.08 | 0.21 | 0.10 | 88 | 1012.8 |
| 20260505193012 | 38 | 76 | 0.0 | 2.0 | 0.08 | 0.20 | 0.08 | 90 | 1013.0 |
| 20260505191512 | 37 | 28 | 0.0 | 5.0 | 0.06 | 0.18 | 0.06 | 88 | 1012.7 |
| 20260505190017 | 37 | 300 | 1.0 | 4.0 | 0.04 | 0.16 | 0.04 | 88 | 1012.5 |
| 20260505184511 | 37 | 263 | 0.0 | 1.0 | 0.03 | 0.15 | 0.03 | 88 | 1012.4 |
| 20260505183008 | 35 | 260 | 0.0 | 0.0 | 0.01 | 0.13 | 0.01 | 91 | 1012.3 |
| 20260505181503 | 35 | 24 | 0.0 | 1.0 | 0.00 | 0.12 | 0.00 | 90 | 1012.1 |
| 20260505180002 | 35 | 292 | 0.0 | 3.0 | 0.00 | 0.12 | 0.00 | 89 | 1012.0 |
| 20260505174605 | 35 | 63 | 0.0 | 3.0 | 0.00 | 0.12 | 0.00 | 89 | 1011.6 |
| 20260505173058 | 35 | 215 | 0.0 | 0.0 | 0.00 | 0.12 | 0.00 | 86 | 1011.2 |
| 20260505171557 | 35 | 215 | 0.0 | 0.0 | 0.00 | 0.12 | 0.00 | 87 | 1010.9 |
| 20260505170054 | 34 | 215 | 0.0 | 1.0 | 0.00 | 0.12 | 0.00 | 88 | 1010.9 |
| 20260505164600 | 34 | 215 | 0.0 | 4.0 | 0.00 | 0.12 | 0.00 | 90 | 1010.6 |
| 20260505163051 | 34 | 205 | 0.0 | 2.0 | 0.00 | 0.12 | 0.00 | 90 | 1010.4 |
| 20260505161550 | 33 | 295 | 0.0 | 3.0 | 0.00 | 0.12 | 0.00 | 90 | 1010.1 |
| 20260505153044 | 32 | 269 | 0.0 | 0.0 | 0.00 | 0.12 | 0.00 | 90 | 1009.0 |
| 20260505151543 | 32 | 46 | 0.0 | 0.0 | 0.00 | 0.12 | 0.00 | 90 | 1008.8 |
| 20260505124521 | 33 | 160 | 5.0 | 10.0 | 0.00 | 0.12 | 0.00 | 83 | 1007.8 |
| 20260505123012 | 33 | 176 | 4.0 | 10.0 | 0.00 | 0.12 | 0.00 | 84 | 1007.7 |
| 20260505121512 | 32 | 263 | 4.0 | 10.0 | 0.00 | 0.12 | 0.00 | 85 | 1007.7 |
| 20260505120022 | 32 | 256 | 3.0 | 8.0 | 0.00 | 0.12 | 0.00 | 87 | 1007.8 |
| 20260505114508 | 32 | 295 | 1.0 | 8.0 | 0.00 | 0.12 | 0.00 | 86 | 1007.9 |
| 20260505113007 | 33 | 275 | 1.0 | 7.0 | 0.00 | 0.12 | 0.00 | 84 | 1007.7 |
| 20260505111514 | 33 | 138 | 3.0 | 11.0 | 0.00 | 0.12 | 0.00 | 84 | 1007.9 |
| 20260505101508 | 32 | 257 | 0.0 | 3.0 | 0.00 | 0.12 | 0.00 | 92 | 1007.7 |
| 20260505100002 | 32 | 76 | 0.0 | 0.0 | 0.00 | 0.12 | 0.00 | 92 | 1008.0 |
| 20260505094601 | 32 | 76 | 0.0 | 1.0 | 0.00 | 0.12 | 0.00 | 92 | 1008.2 |
| 20260505093102 | 32 | 75 | 0.0 | 3.0 | 0.00 | 0.12 | 0.00 | 91 | 1008.2 |
| 20260505091607 | 33 | 38 | 0.0 | 5.0 | 0.00 | 0.12 | 0.00 | 90 | 1008.4 |
| 20260505090057 | 33 | 11 | 3.0 | 8.0 | 0.00 | 0.12 | 0.00 | 88 | 1008.4 |
| 20260505084556 | 33 | 63 | 3.0 | 6.0 | 0.00 | 0.12 | 0.00 | 87 | 1008.5 |
| 20260505083057 | 34 | 246 | 0.0 | 7.0 | 0.00 | 0.12 | 0.00 | 79 | 1008.6 |
| 20260505081550 | 34 | 304 | 1.0 | 11.0 | 0.00 | 0.12 | 0.00 | 79 | 1008.5 |
| 20260505080050 | 34 | 196 | 0.0 | 6.0 | 0.00 | 0.12 | 0.00 | 80 | 1008.7 |
| 20260505074547 | 34 | 256 | 2.0 | 7.0 | 0.00 | 0.12 | 0.00 | 80 | 1009.0 |
| 20260505073053 | 34 | 277 | 4.0 | 10.0 | 0.00 | 0.12 | 0.12 | 82 | 1009.1 |
| 20260505071555 | 34 | 232 | 2.0 | 9.0 | 0.00 | 0.12 | 0.12 | 81 | 1009.1 |
| 20260505070045 | 34 | 236 | 2.0 | 8.0 | 0.00 | 0.12 | 0.12 | 82 | 1009.0 |
| 20260505064543 | 34 | 279 | 1.0 | 6.0 | 0.00 | 0.12 | 0.12 | 81 | 1009.0 |
| 20260505063042 | 34 | 211 | 1.0 | 7.0 | 0.00 | 0.12 | 0.12 | 82 | 1009.1 |
| 20260505061545 | 34 | 269 | 2.0 | 7.0 | 0.00 | 0.12 | 0.12 | 81 | 1009.2 |
| 20260505060047 | 34 | 291 | 2.0 | 11.0 | 0.00 | 0.12 | 0.12 | 81 | 1009.1 |
| 20260505054541 | 34 | 261 | 0.0 | 8.0 | 0.00 | 0.12 | 0.12 | 82 | 1009.1 |
| 20260505053040 | 35 | 300 | 3.0 | 7.0 | 0.00 | 0.12 | 0.12 | 80 | 1009.0 |
| 20260505051556 | 35 | 271 | 1.0 | 7.0 | 0.00 | 0.12 | 0.12 | 77 | 1008.9 |
| 20260505041538 | 36 | 322 | 3.0 | 8.0 | 0.00 | 0.12 | 0.12 | 77 | 1008.2 |
| 20260505040037 | 37 | 284 | 1.0 | 9.0 | 0.00 | 0.12 | 0.12 | 71 | 1007.9 |
| 20260505034535 | 37 | 206 | 2.0 | 13.0 | 0.00 | 0.12 | 0.12 | 69 | 1007.7 |
| 20260505033037 | 37 | 273 | 4.0 | 10.0 | 0.00 | 0.12 | 0.12 | 71 | 1007.6 |
| 20260505031533 | 37 | 233 | 4.0 | 11.0 | 0.00 | 0.12 | 0.12 | 72 | 1007.8 |
| 20260505030032 | 37 | 250 | 5.0 | 14.0 | 0.00 | 0.12 | 0.12 | 71 | 1007.4 |
| 20260505024533 | 37 | 263 | 4.0 | 17.0 | 0.00 | 0.12 | 0.12 | 73 | 1007.5 |
| 20260505023032 | 37 | 217 | 4.0 | 15.0 | 0.00 | 0.12 | 0.12 | 73 | 1007.6 |
| 20260505021532 | 37 | 270 | 3.0 | 12.0 | 0.00 | 0.12 | 0.12 | 73 | 1007.7 |
| 20260505020030 | 37 | 342 | 4.0 | 10.0 | 0.00 | 0.12 | 0.12 | 74 | 1007.7 |
| 20260505014530 | 37 | 269 | 5.0 | 12.0 | 0.00 | 0.12 | 0.12 | 76 | 1007.8 |
| 20260505013036 | 37 | 236 | 4.0 | 14.0 | 0.00 | 0.13 | 0.12 | 77 | 1007.9 |
| 20260505011530 | 38 | 284 | 5.0 | 14.0 | 0.00 | 0.13 | 0.12 | 76 | 1007.9 |
| 20260505010030 | 38 | 214 | 4.0 | 11.0 | 0.00 | 0.13 | 0.12 | 75 | 1007.8 |
| 20260505004532 | 39 | 272 | 5.0 | 17.0 | 0.00 | 0.13 | 0.12 | 75 | 1007.9 |
| 20260505003034 | 40 | 325 | 5.0 | 17.0 | 0.00 | 0.13 | 0.12 | 70 | 1007.6 |